Regional Weather Roundup
Issued by NWS

Home | Current Version | Previous Version | Graphics & Text | Print | Product List | Glossary On
Versions: 1 2 3 4 5 6 7 8 9 10 11 12 13 14 15 16 17 18 19 20 21 22 23 24 25 26 27 28 29 30 31 32 33 34 35 36 37 38 39 40 41 42 43 44 45 46 47 48 49 50
117
ASUS44 KLIX 210905
RWRLA
LOUISIANA WEATHER ROUNDUP
NATIONAL WEATHER SERVICE NEW ORLEANS LA
400 AM CDT SUN SEP 21 2014

NOTE: "FAIR" INDICATES FEW OR NO CLOUDS BELOW 12,000 FEET WITH NO
      SIGNIFICANT WEATHER AND/OR OBSTRUCTIONS TO VISIBILITY.
      SKY/WX - SKY CONDITION AND SIGNIFICANT WEATHER.
      TMP - AIR TEMPERATURE.    DP   - DEWPOINT TEMPERATURE.
      RH  - RELATIVE HUMIDITY.  PRES - PRESSURE.
      HX  - HEAT INDEX.         WCI  - WIND CHILL INDEX.

*  THESE STATIONS ARE NOT NWS OR FAA STATIONS AND ARE NOT UNDER
   NWS QUALITY CONTROL.

LAZ040-048-061>063-065-066-069-211000-
SOUTHEAST LOUISIANA

CITY           SKY/WX    TMP DP  RH WIND       PRES   REMARKS
N.O. AUDUBON     N/A     76  70  84 MISG        N/A
N.O. INTL ARPT CLEAR     77  70  79 NE8       29.96S
N.O. LAKEFRONT CLEAR     77  70  79 E14       29.97S
N.O. DOWNTOWN* FAIR      75  66  73 NE5       29.97S
SLIDELL        CLEAR     70  66  87 NE3       29.97S
BATON ROUGE    CLEAR     70  68  93 CALM      29.99S
BOOTHVILLE     PTCLDY    80  72  76 NE6       29.95R
BELLE CHASSE   CLEAR     74  68  81 NE5       29.96S
BOGALUSA*        N/A     66  63  90 CALM      30.00S
GALLIANO*      NOT AVBL
NEW ROADS*     FAIR      69  69  98 CALM      29.99S FOG
GONZALES*      FAIR      70  70 100 CALM      29.98S FOG
HAMMOND*       CLEAR     70  66  88 N3        30.00S
HOUMA*         CLEAR     72  67  85 CALM      29.96S
PORT FOURCHON* SUNNY     79  72  78 NE10      29.98R

$$

LAZ041-044-053-054-211000-
SOUTHWEST LOUISIANA

CITY           SKY/WX    TMP DP  RH WIND       PRES   REMARKS
LAKE CHARLES   CLEAR     71  69  93 NE5       29.98S
LAFAYETTE      CLEAR     71  70  96 NE3       29.98S
PATTERSON      CLEAR     72  70  94 NE3       29.99S
SALT POINT       N/A     75  72  90 CALM      29.95S
NEW IBERIA     CLEAR     73  71  93 CALM      29.98S
CHENAULT AIRPK CLEAR     70  69  94 CALM      29.99S

$$

LAZ027-028-211000-
CENTRAL LOUISIANA

CITY           SKY/WX    TMP DP  RH WIND       PRES   REMARKS
FORT POLK      CLEAR     69  67  93 CALM      30.00R
ALEXANDRIA INT CLEAR     68  67  96 CALM      29.98S
ALEXANDRIA     CLEAR     68  66  93 CALM      29.99S FOG

$$

LAZ001-002-211000-
NORTHWEST LOUISIANA

CITY           SKY/WX    TMP DP  RH WIND       PRES   REMARKS
SHREVEPORT     CLEAR     70  66  87 CALM      30.00S
BARKSDALE AFB  CLEAR     69  67  95 NE1       30.01S
DTN SHREVEPORT CLEAR     70  32  24 CALM      30.01R

$$

LAZ014-016-211000-
NORTHEAST LOUISIANA

CITY           SKY/WX    TMP DP  RH WIND       PRES   REMARKS
MONROE         CLEAR     70  68  93 CALM      30.00S
TALLULAH       CLEAR     69  67  93 CALM      30.00S

$$




USA.gov is the U.S. government's official web portal to all federal, state and local government web resources and services.